TimeCST,TemperatureF,Dew PointF,Humidity,Sea Level PressureIn,VisibilityMPH,Wind Direction,Wind SpeedMPH,Gust SpeedMPH,PrecipitationIn,Events,Conditions,WindDirDegrees,DateUTC
12:15 AM,44.6,44.6,100,30.31,2.5,Calm,Calm,-,N/A,,Clear,0,2013-01-24 06:15:00
12:55 AM,42.8,42.8,100,30.32,5.0,Calm,Calm,-,N/A,,Clear,0,2013-01-24 06:55:00
1:15 AM,42.8,42.8,100,30.31,10.0,Calm,Calm,-,N/A,,Clear,0,2013-01-24 07:15:00
1:35 AM,42.8,42.8,100,30.31,10.0,Calm,Calm,-,N/A,,Clear,0,2013-01-24 07:35:00
1:55 AM,42.8,41.0,93,30.31,10.0,Calm,Calm,-,N/A,,Clear,0,2013-01-24 07:55:00
2:15 AM,42.8,41.0,93,30.31,10.0,Calm,Calm,-,N/A,,Clear,0,2013-01-24 08:15:00
2:35 AM,44.6,42.8,93,30.30,10.0,Calm,Calm,-,N/A,,Clear,0,2013-01-24 08:35:00
2:55 AM,46.4,44.6,93,30.30,10.0,Calm,Calm,-,N/A,,Clear,0,2013-01-24 08:55:00
3:15 AM,46.4,44.6,93,30.30,10.0,WSW,3.5,-,N/A,,Clear,240,2013-01-24 09:15:00
3:35 AM,53.6,51.8,94,30.29,10.0,WSW,4.6,-,N/A,,Clear,250,2013-01-24 09:35:00
3:55 AM,53.6,51.8,94,30.29,10.0,WSW,3.5,-,N/A,,Clear,250,2013-01-24 09:55:00
4:15 AM,53.6,51.8,94,30.30,7.0,WSW,3.5,-,N/A,,Clear,250,2013-01-24 10:15:00
4:35 AM,53.6,51.8,94,30.30,10.0,WSW,3.5,-,N/A,,Clear,250,2013-01-24 10:35:00
4:55 AM,53.6,51.8,94,30.31,10.0,West,3.5,-,N/A,,Clear,260,2013-01-24 10:55:00
5:15 AM,53.6,51.8,94,30.31,10.0,WSW,4.6,-,N/A,,Clear,250,2013-01-24 11:15:00
5:35 AM,51.8,48.2,88,30.31,10.0,Calm,Calm,-,N/A,,Clear,0,2013-01-24 11:35:00
5:55 AM,44.6,42.8,93,30.32,10.0,Calm,Calm,-,N/A,,Clear,0,2013-01-24 11:55:00
6:15 AM,44.6,42.8,93,30.33,10.0,Calm,Calm,-,N/A,,Clear,0,2013-01-24 12:15:00
6:35 AM,42.8,42.8,100,30.32,10.0,Calm,Calm,-,N/A,,Clear,0,2013-01-24 12:35:00
6:55 AM,41.0,41.0,100,30.33,7.0,Calm,Calm,-,N/A,,Clear,0,2013-01-24 12:55:00
7:15 AM,41.0,41.0,100,30.33,1.5,Calm,Calm,-,N/A,,Mostly Cloudy,0,2013-01-24 13:15:00
7:35 AM,42.8,42.8,100,30.34,7.0,Calm,Calm,-,N/A,,Overcast,0,2013-01-24 13:35:00
7:55 AM,46.4,46.4,100,30.34,0.5,Calm,Calm,-,N/A,Fog,Fog,0,2013-01-24 13:55:00
8:15 AM,50.0,50.0,100,30.34,3.0,Calm,Calm,-,N/A,,Scattered Clouds,0,2013-01-24 14:15:00
8:35 AM,55.4,55.4,100,30.34,7.0,WSW,4.6,-,N/A,,Clear,240,2013-01-24 14:35:00
8:55 AM,60.8,55.4,82,30.35,7.0,WSW,5.8,-,N/A,,Clear,240,2013-01-24 14:55:00
9:15 AM,62.6,55.4,77,30.36,10.0,WSW,6.9,-,N/A,,Clear,240,2013-01-24 15:15:00
9:35 AM,62.6,55.4,77,30.36,10.0,WSW,6.9,-,N/A,,Clear,240,2013-01-24 15:35:00
9:55 AM,64.4,55.4,73,30.36,7.0,SW,8.1,-,N/A,,Clear,230,2013-01-24 15:55:00
10:15 AM,64.4,55.4,73,30.36,7.0,WSW,6.9,-,N/A,,Clear,250,2013-01-24 16:15:00
10:35 AM,66.2,55.4,68,30.36,7.0,WSW,9.2,-,N/A,,Scattered Clouds,240,2013-01-24 16:35:00
10:55 AM,66.2,55.4,68,30.36,7.0,WSW,6.9,-,N/A,,Mostly Cloudy,250,2013-01-24 16:55:00
11:15 AM,68.0,53.6,60,30.34,7.0,WSW,9.2,-,N/A,,Scattered Clouds,240,2013-01-24 17:15:00
11:35 AM,68.0,53.6,60,30.34,10.0,WSW,9.2,-,N/A,,Scattered Clouds,250,2013-01-24 17:35:00
11:55 AM,68.0,53.6,60,30.33,7.0,WSW,9.2,-,N/A,,Clear,250,2013-01-24 17:55:00
12:15 PM,68.0,53.6,60,30.31,7.0,SW,8.1,-,N/A,,Clear,230,2013-01-24 18:15:00
12:35 PM,68.0,53.6,60,30.30,7.0,SW,6.9,-,N/A,,Clear,220,2013-01-24 18:35:00
1:15 PM,69.8,53.6,56,30.29,10.0,SSW,8.1,-,N/A,,Clear,210,2013-01-24 19:15:00
1:35 PM,68.0,53.6,60,30.28,7.0,SSW,8.1,-,N/A,,Scattered Clouds,210,2013-01-24 19:35:00
1:55 PM,68.0,53.6,60,30.28,7.0,SW,9.2,-,N/A,,Scattered Clouds,220,2013-01-24 19:55:00
2:15 PM,68.0,55.4,64,30.27,10.0,SW,9.2,-,N/A,,Clear,220,2013-01-24 20:15:00
2:35 PM,68.0,53.6,60,30.27,7.0,SW,10.4,-,N/A,,Clear,220,2013-01-24 20:35:00
2:55 PM,66.2,53.6,64,30.26,10.0,SW,11.5,16.1,N/A,,Clear,220,2013-01-24 20:55:00
3:15 PM,68.0,53.6,60,30.26,7.0,SW,9.2,-,N/A,,Clear,220,2013-01-24 21:15:00
3:35 PM,66.2,55.4,68,30.25,10.0,SW,8.1,-,N/A,,Clear,220,2013-01-24 21:35:00
4:15 PM,64.4,55.4,73,30.25,7.0,SSW,8.1,-,N/A,,Clear,210,2013-01-24 22:15:00
4:35 PM,64.4,55.4,73,30.25,7.0,SW,4.6,-,N/A,,Clear,220,2013-01-24 22:35:00
4:55 PM,62.6,55.4,77,30.25,7.0,SSW,3.5,-,N/A,,Clear,210,2013-01-24 22:55:00
5:35 PM,60.8,55.4,82,30.26,7.0,SW,4.6,-,N/A,,Clear,220,2013-01-24 23:35:00
5:55 PM,60.8,55.4,82,30.27,10.0,Calm,Calm,-,N/A,,Clear,0,2013-01-24 23:55:00
6:15 PM,60.8,55.4,82,30.27,10.0,SW,3.5,-,N/A,,Clear,220,2013-01-25 00:15:00
6:35 PM,60.8,55.4,82,30.27,10.0,SW,4.6,-,N/A,,Clear,230,2013-01-25 00:35:00
7:15 PM,60.8,55.4,82,30.29,10.0,SW,4.6,-,N/A,,Mostly Cloudy,230,2013-01-25 01:15:00
7:35 PM,60.8,55.4,82,30.29,10.0,WSW,3.5,-,N/A,,Overcast,240,2013-01-25 01:35:00
7:55 PM,60.8,55.4,82,30.29,7.0,SW,4.6,-,N/A,,Overcast,230,2013-01-25 01:55:00
8:35 PM,60.8,55.4,82,30.29,7.0,SW,3.5,-,N/A,,Overcast,220,2013-01-25 02:35:00
8:55 PM,60.8,55.4,82,30.29,7.0,Calm,Calm,-,N/A,,Overcast,0,2013-01-25 02:55:00
9:15 PM,60.8,55.4,82,30.28,7.0,Calm,Calm,-,N/A,,Overcast,0,2013-01-25 03:15:00
9:35 PM,60.8,55.4,82,30.29,7.0,Calm,Calm,-,N/A,,Overcast,0,2013-01-25 03:35:00
9:55 PM,60.8,55.4,82,30.29,10.0,Calm,Calm,-,N/A,,Overcast,0,2013-01-25 03:55:00
10:15 PM,59.0,53.6,82,30.29,10.0,SSE,4.6,-,N/A,,Overcast,160,2013-01-25 04:15:00
10:35 PM,57.2,53.6,88,30.29,7.0,Calm,Calm,-,N/A,,Overcast,0,2013-01-25 04:35:00
10:55 PM,55.4,53.6,94,30.29,7.0,Calm,Calm,-,N/A,,Overcast,0,2013-01-25 04:55:00
11:15 PM,55.4,53.6,94,30.28,10.0,Calm,Calm,-,N/A,,Overcast,0,2013-01-25 05:15:00
11:35 PM,55.4,53.6,94,30.28,7.0,Calm,Calm,-,N/A,,Scattered Clouds,0,2013-01-25 05:35:00